Vertical_Velocity
-0 -1 -3 1 -1 1 0 -3 1 1 -1 2 -0 -1 1 4 -4 -2 3 1 2 1 -0 -2 2 1 0 -1 1 -1 -2 2 5 5 -2 -4 -4 -1 5 2 1 4 4 -1 -3
-2 -0 -2 -1 0 -0 0 0 -0 1 0 2 -0 -2 3 3 -4 -4 -2 7 -0 -2 -0 1 -1 2 -0 -1 -4 -2 -1 -2 2 2 4 -3 -3 -1 -0 4 4 6 0 -2 -3
2 -2 -2 -1 -3 -1 -2 2 -1 -2 -2 2 2 3 0 1 2 2 -3 0 2 2 -0 1 2 -0 3 1 -4 2 6 -6 3 5 4 -7 -2 -4 1 -2 8 3 -2 2 4
-1 -1 -0 -1 -0 -3 -1 -0 -2 -1 -1 1 -1 -0 1 -1 4 -4 -2 -7 -2 1 -1 -0 2 -1 2 -2 -3 -5 4 -4 4 3 6 0 -2 -1 -4 7 -2 1 -2 1 5
-1 0 1 -1 2 -1 0 0 -1 -3 -1 0 -2 0 -3 5 16 -5 -5 4 -0 -2 -4 0 -0 -1 1 -1 -3 -1 1 -5 -3 4 1 -1 1 -1 5 -4 1 2 -0 2 3
0 1 1 1 2 -1 -2 1 -4 0 -2 -0 -1 -1 -2 7 -9 0 -1 -3 -2 3 4 -4 -2 -4 2 -1 -1 -2 -5 3 0 6 -1 -2 -2 0 5 3 3 4 1 2 2
1 -0 -1 2 2 3 2 -0 -3 -4 1 -3 -1 -3 1 16 -4 1 -7 -1 -3 1 -1 -4 -7 -1 0 1 -5 -3 -1 -6 9 5 -3 3 -2 -0 3 -0 0 2 0 1 3
-2 -2 -0 1 1 -2 -0 3 -2 -2 -2 -2 -2 -5 6 3 -0 -5 -3 3 -1 -1 0 0 -3 -3 2 -4 -3 2 -5 2 8 3 -4 -2 3 7 -1 -4 1 1 4 2 4
-3 -1 1 1 -1 1 -3 -2 -3 -3 -3 -4 -4 -8 21 7 -2 0 -1 -2 -2 -1 1 -4 2 -1 0 -5 -2 -0 0 -0 5 -10 -9 -8 6 0 -2 -3 -2 -3 1 4 0
-3 0 2 -1 1 -0 -0 1 -3 -5 -2 1 -9 -5 7 3 1 -1 -1 2 1 -4 -1 -2 -3 2 -2 -2 5 -6 -6 -3 5 6 -9 -5 4 4 -2 1 2 3 1 -0 0
-4 -4 -4 -1 1 -3 -1 1 -4 -7 -0 -2 -8 -4 10 -3 -2 9 -6 -3 0 -1 1 -7 -10 9 -3 -1 -1 -4 -5 -2 6 6 -14 -4 -1 -0 -5 -2 2 5 2 5 4
-3 1 -2 -6 -6 1 -3 -3 -3 -11 0 -3 5 -12 7 -22 -2 22 -9 -4 -4 2 -8 -5 -2 9 1 -2 -7 -2 -4 7 8 5 -18 -3 -0 -1 -4 1 -0 3 5 8 3
-5 -0 -5 -1 -2 1 -2 -4 -7 -14 -22 46 -8 -4 -2 -8 -5 54 -19 1 5 -4 3 -9 6 1 -3 -5 -2 2 -1 0 -5 -2 -8 -11 -7 -3 1 -2 3 2 3 3 5
3 8 1 -5 12 -1 -3 -2 -6 -3 -31 20 1 -11 -4 -5 -4 7 -9 -9 -11 6 6 -20 16 4 0 6 -6 -2 -5 -3 -2 -8 -0 -2 -26 3 5 5 -0 3 1 5 4
-2 -3 -2 -7 4 2 2 1 -9 12 -41 9 -5 -3 -7 9 1 -4 3 -8 5 7 8 5 9 -0 -8 13 -13 5 -4 -1 -0 -4 -16 8 -29 19 7 2 5 2 1 3 3
2 1 -5 3 -2 -5 -10 -10 -1 2 -27 -5 -2 3 -1 -4 -5 4 -0 1 1 -6 -7 14 -9 -1 4 4 2 -4 -1 -0 -4 -3 -34 16 -13 44 8 8 6 1 0 3 2
-2 2 1 3 6 -1 -3 -3 -7 -25 1 -2 -6 1 3 -2 -5 -4 1 -2 -6 -2 -1 9 6 7 8 -6 10 2 8 -7 -24 -11 -17 4 -34 23 1 2 7 15 3 1 0
-0 2 1 3 -6 2 -1 -8 -11 -9 6 2 -0 1 -6 1 3 -5 -12 -2 1 -2 -4 -2 0 8 -3 0 3 4 4 -6 -14 -3 3 2 -42 10 6 3 7 6 6 4 -0
-2 0 8 -11 1 1 -5 -18 0 17 1 9 6 3 -11 2 -0 6 -4 -6 -3 4 8 -4 2 1 3 0 10 4 -4 18 -10 -2 -22 5 7 3 13 11 -7 -1 4 1 1
-3 0 8 -7 4 2 -16 -3 -9 8 -2 4 11 -3 3 -5 1 8 7 2 5 -2 -0 -10 3 -1 -1 8 6 4 2 5 -1 -14 -18 -8 -6 -11 -2 5 2 -3 -5 -2 -2
-0 4 4 -1 5 -2 -11 -6 -1 3 -1 2 7 5 1 2 3 6 -1 6 8 -4 1 -1 -4 3 12 -0 6 4 4 2 8 1 -5 -18 -7 4 -4 5 6 1 1 0 1
1 1 8 1 -3 -2 2 5 4 -0 5 -9 1 6 0 -1 -1 -4 8 4 7 7 9 12 -5 -4 6 13 -4 1 -2 9 15 18 -11 -9 -30 3 5 1 -1 1 -1 -0 5
-3 10 -5 -0 -1 2 3 -1 -4 -1 3 -1 -1 6 9 -3 -6 2 4 3 6 10 5 7 5 -2 6 15 7 12 8 15 9 4 -5 2 -34 8 -3 8 5 2 -4 -4 -3
-0 2 -2 1 1 4 2 -3 -1 3 -1 1 -2 -1 6 2 9 -14 -3 -1 3 10 2 1 2 2 -0 11 -0 7 23 4 6 -12 21 -20 -21 29 8 -2 9 3 -6 -3 -2
-1 -2 -3 -7 -8 2 -1 -2 2 -3 -1 5 4 9 1 -1 -6 1 -2 -6 -2 4 5 -2 -10 11 3 2 10 -1 -9 -1 3 6 0 7 -6 -7 9 6 -5 4 -0 -10 6
1 -1 -2 -2 -5 6 1 -0 0 -0 -1 5 -0 1 3 0 -2 6 -1 5 1 1 3 0 -8 3 -16 9 6 -18 -20 13 20 -7 -1 5 -15 -18 6 -3 6 3 -9 -6 2
-1 -2 -7 -0 3 1 1 2 -0 4 -1 4 2 5 2 1 1 0 -3 0 -3 -3 3 -6 -1 7 -45 35 10 -28 -0 3 -5 6 17 -2 -17 -9 -27 -2 5 2 -6 -9 12
Height
5796 5795 5796 5798 5799 5799 5800 5802 5803 5804 5805 5807 5808 5809 5810 5809 5809 5810 5812 5813 5813 5812 5813 5813 5814 5814 5813 5814 5814 5815 5817 5818 5818 5815 5812 5813 5818 5821 5824 5826 5829 5832 5834 5832 5831
5787 5787 5789 5790 5792 5793 5794 5795 5796 5797 5798 5799 5800 5802 5803 5804 5804 5803 5806 5806 5806 5806 5807 5808 5809 5810 5809 5809 5810 5810 5812 5813 5812 5810 5808 5809 5812 5815 5817 5820 5824 5827 5827 5827 5826
5778 5779 5781 5782 5784 5785 5786 5786 5787 5788 5789 5791 5793 5794 5796 5797 5799 5797 5798 5800 5800 5800 5800 5801 5802 5804 5804 5803 5803 5804 5807 5807 5808 5807 5805 5804 5807 5808 5810 5812 5817 5820 5821 5821 5821
5769 5770 5772 5773 5775 5776 5777 5778 5779 5779 5780 5782 5784 5787 5787 5790 5792 5788 5791 5792 5791 5791 5792 5794 5796 5797 5798 5797 5796 5796 5801 5800 5802 5801 5800 5801 5802 5803 5804 5807 5810 5813 5813 5815 5817
5762 5762 5763 5765 5767 5768 5768 5770 5770 5771 5772 5773 5775 5778 5778 5781 5785 5775 5782 5784 5782 5783 5785 5785 5788 5788 5791 5791 5788 5788 5793 5793 5795 5795 5793 5794 5797 5796 5798 5801 5804 5806 5807 5809 5810
5753 5754 5756 5757 5759 5760 5761 5763 5763 5763 5764 5765 5767 5768 5770 5774 5772 5769 5770 5773 5773 5775 5776 5776 5777 5779 5783 5784 5780 5781 5782 5786 5787 5789 5787 5786 5788 5787 5791 5795 5796 5797 5799 5801 5803
5741 5745 5748 5748 5750 5751 5753 5753 5754 5755 5757 5757 5758 5759 5760 5770 5763 5762 5762 5764 5765 5764 5769 5768 5766 5770 5773 5777 5772 5773 5773 5776 5780 5781 5779 5777 5776 5780 5782 5785 5787 5789 5790 5792 5794
5734 5732 5736 5737 5738 5740 5742 5744 5745 5746 5748 5748 5748 5748 5751 5759 5755 5754 5753 5757 5756 5756 5758 5760 5756 5760 5764 5766 5764 5764 5763 5769 5773 5771 5771 5769 5768 5773 5771 5775 5777 5779 5780 5783 5785
5724 5726 5725 5726 5728 5729 5730 5732 5734 5735 5737 5738 5738 5739 5745 5749 5746 5745 5746 5746 5746 5747 5749 5750 5748 5750 5755 5758 5757 5758 5756 5757 5762 5760 5761 5761 5757 5761 5764 5765 5768 5770 5772 5774 5775
5712 5715 5715 5715 5717 5720 5720 5721 5722 5725 5728 5729 5729 5732 5735 5740 5738 5737 5738 5741 5738 5737 5740 5741 5739 5741 5748 5750 5749 5747 5744 5748 5752 5757 5754 5751 5746 5751 5755 5755 5757 5759 5760 5763 5765
5702 5702 5704 5705 5706 5707 5710 5712 5714 5713 5717 5720 5720 5721 5725 5730 5729 5731 5730 5731 5731 5730 5732 5731 5729 5736 5743 5738 5736 5737 5737 5737 5745 5747 5741 5739 5736 5738 5744 5744 5745 5748 5752 5754 5757
5691 5692 5693 5693 5693 5696 5697 5699 5700 5702 5706 5708 5711 5711 5715 5716 5719 5722 5719 5722 5722 5723 5721 5722 5723 5733 5731 5728 5727 5727 5729 5732 5733 5735 5725 5729 5727 5731 5735 5736 5738 5739 5743 5746 5746
5680 5681 5682 5682 5682 5684 5684 5685 5687 5689 5692 5700 5700 5700 5701 5706 5709 5718 5708 5712 5713 5713 5714 5715 5717 5720 5720 5721 5719 5721 5720 5723 5720 5724 5718 5719 5719 5725 5726 5726 5729 5732 5735 5737 5739
5666 5667 5669 5670 5673 5671 5671 5672 5673 5677 5678 5686 5685 5690 5689 5692 5696 5701 5700 5701 5703 5706 5708 5704 5710 5713 5711 5711 5712 5711 5714 5711 5712 5714 5715 5712 5704 5716 5720 5722 5723 5727 5728 5730 5732
5650 5652 5653 5655 5656 5656 5657 5659 5662 5665 5666 5670 5669 5672 5678 5679 5681 5684 5689 5690 5693 5695 5696 5700 5701 5701 5701 5704 5702 5701 5704 5703 5703 5703 5704 5707 5699 5707 5714 5715 5720 5719 5718 5719 5721
5637 5638 5639 5642 5642 5641 5641 5644 5651 5655 5656 5655 5655 5655 5660 5664 5666 5667 5672 5677 5679 5680 5682 5687 5688 5692 5691 5692 5692 5691 5690 5693 5693 5693 5690 5699 5698 5697 5705 5708 5711 5711 5710 5710 5711
5626 5627 5627 5629 5629 5629 5631 5633 5636 5641 5648 5642 5645 5646 5645 5648 5652 5654 5656 5661 5665 5667 5669 5672 5675 5677 5675 5676 5679 5679 5680 5679 5681 5680 5680 5686 5691 5691 5689 5697 5699 5702 5702 5702 5701
5613 5615 5616 5613 5615 5616 5616 5620 5623 5628 5629 5627 5631 5632 5633 5635 5636 5640 5641 5645 5647 5650 5654 5657 5660 5661 5662 5665 5666 5666 5665 5665 5663 5668 5673 5673 5671 5680 5682 5678 5687 5690 5691 5691 5692
5599 5602 5602 5599 5603 5602 5601 5606 5617 5618 5614 5614 5617 5618 5617 5622 5626 5626 5627 5632 5636 5637 5639 5642 5647 5646 5649 5651 5653 5653 5650 5656 5651 5655 5652 5657 5666 5665 5671 5673 5668 5673 5676 5678 5676
5586 5588 5587 5588 5588 5587 5587 5599 5601 5602 5599 5602 5605 5605 5607 5609 5613 5616 5618 5619 5618 5621 5624 5625 5628 5632 5634 5638 5638 5638 5639 5642 5640 5640 5641 5643 5647 5652 5655 5655 5657 5656 5659 5664 5663
5572 5573 5575 5574 5575 5574 5578 5583 5587 5588 5586 5589 5591 5591 5595 5598 5600 5604 5603 5606 5605 5604 5608 5610 5611 5617 5622 5623 5625 5627 5628 5629 5628 5628 5625 5630 5635 5633 5639 5642 5640 5642 5643 5646 5650
5559 5559 5561 5560 5562 5563 5567 5569 5572 5574 5574 5574 5577 5577 5579 5583 5586 5589 5591 5589 5593 5592 5594 5593 5595 5600 5606 5609 5610 5613 5615 5617 5615 5614 5612 5614 5620 5624 5623 5622 5623 5626 5627 5630 5633
5546 5547 5546 5546 5549 5550 5552 5553 5554 5558 5558 5560 5563 5563 5565 5567 5571 5573 5576 5577 5581 5581 5580 5579 5583 5584 5587 5593 5596 5600 5601 5600 5596 5596 5600 5598 5608 5610 5610 5612 5611 5608 5611 5613 5617
5534 5534 5533 5533 5535 5535 5535 5537 5539 5541 5542 5542 5545 5547 5549 5552 5555 5557 5562 5565 5566 5568 5566 5566 5570 5572 5574 5573 5578 5583 5584 5582 5582 5582 5583 5583 5588 5601 5598 5596 5597 5596 5594 5597 5599
5521 5520 5519 5521 5521 5522 5521 5524 5525 5526 5527 5529 5530 5533 5534 5535 5538 5543 5547 5549 5553 5556 5554 5551 5555 5557 5560 5558 5558 5561 5566 5572 5570 5570 5563 5573 5567 5582 5585 5583 5579 5583 5583 5584 5585
5509 5509 5508 5509 5510 5509 5509 5512 5514 5514 5516 5517 5518 5519 5520 5524 5524 5529 5532 5535 5538 5540 5542 5541 5543 5539 5543 5547 5537 5538 5551 5562 5554 5553 5550 5552 5547 5566 5569 5568 5566 5566 5563 5570 5573
5495 5496 5497 5498 5498 5499 5501 5502 5503 5505 5506 5507 5509 5510 5511 5511 5513 5515 5519 5522 5524 5527 5530 5530 5530 5524 5529 5537 5522 5523 5545 5538 5541 5544 5541 5533 5540 5548 5549 5552 5553 5543 5549 5554 5554